Asheville, NC

9:58 PM EDT on June 27, 2017 (GMT -0400)
Asheville Regional

Weather History for KAVL - March, 2010

Change the Weather History Date:

Monday, March 8, 2010

  Actual Average Record
Temperature  
Mean Temperature 48 °F 45 °F  
Max Temperature 64 °F 56 °F 81 °F (1974)
Min Temperature 31 °F 34 °F 8 °F (1920)
Degree Days  
Heating Degree Days 17 20  
Month to date heating degree days 223 166  
Since 1 July heating degree days 3803 3383  
Cooling Degree Days 0 0  
Month to date cooling degree days 0 0  
Year to date cooling degree days 0 0  
Moisture  
Dew Point 29 °F    
Average Humidity 53    
Maximum Humidity 76    
Minimum Humidity 30    
Precipitation  
Precipitation 0.00 in 0.13 in 1.40 in (1998)
Month to date precipitation 0.52 0.99  
Year to date precipitation 10.87 8.42  
Snow  
Snow 0.00 in 0.00 in 3.10 in (1991)
Month to date snowfall 8.8 0.5  
Since 1 July snowfall 38.2 7.8  
Snow Depth 0.00 in    
Sea Level Pressure  
Sea Level Pressure 30.06 in    
Wind  
Wind Speed 6 mph (NNW)    
Max Wind Speed 17 mph    
Max Gust Speed 22 mph    
Visibility 10 miles    
Events      
T = Trace of Precipitation, MM = Missing Value Source: NWS Daily Summary

Daily Weather History Graph

Daily Weather History Graph

Search for Another Location

Airport or City:

Trip Planner

Search our weather history database for the weather conditions in past years. The results will help you decide how hot, cold, wet, or windy it might be!

Date:

Astronomy

Mar. 08, 2010 Rise Set
Actual Time 6:50 AM EST 6:31 PM EST
Civil Twilight 6:25 AM EST 6:57 PM EST
Nautical Twilight 5:55 AM EST 7:26 PM EST
Astronomical Twilight 5:26 AM EST 7:56 PM EST
Moon 2:24 AM EST (3/8) 12:05 PM EST (3/8)
Length of Visible Light 12h 31m
Length of Day
11h 41m
Last Quarter, 40% of the Moon is Illuminated
Mar 8
Last Quarter
Mar 15
New
Mar 23
First Quarter
Mar 29
Full
Apr 6
Last Quarter

Hourly Weather History & Observations

Time (EST) Temp. Windchill Dew Point Humidity Pressure Visibility Wind Dir Wind Speed Gust Speed Precip Events Conditions
12:54 AM 34.0 °F 28.8 °F 19.9 °F 56% 30.11 in 10.0 mi NNW 5.8 mph - N/A   Clear
1:54 AM 35.1 °F 30.1 °F 19.9 °F 54% 30.10 in 10.0 mi North 5.8 mph - N/A   Clear
2:54 AM 33.1 °F 26.9 °F 21.0 °F 61% 30.09 in 10.0 mi NNW 6.9 mph - N/A   Clear
3:54 AM 32.0 °F 24.2 °F 21.0 °F 64% 30.10 in 10.0 mi NNW 9.2 mph - N/A   Clear
4:54 AM 33.1 °F 25.5 °F 21.0 °F 61% 30.11 in 10.0 mi NNW 9.2 mph - N/A   Mostly Cloudy
5:54 AM 32.0 °F 26.4 °F 19.0 °F 59% 30.13 in 10.0 mi NNW 5.8 mph - N/A   Partly Cloudy
6:54 AM 33.1 °F - 21.0 °F 61% 30.14 in 10.0 mi Calm Calm - N/A   Scattered Clouds
7:54 AM 34.0 °F - 23.0 °F 64% 30.14 in 10.0 mi Calm Calm - N/A   Mostly Cloudy
8:54 AM 41.0 °F - 24.1 °F 51% 30.14 in 10.0 mi Calm Calm - N/A   Scattered Clouds
9:54 AM 50.0 °F - 21.0 °F 32% 30.11 in 10.0 mi Calm Calm - N/A   Partly Cloudy
10:54 AM 55.0 °F - 25.0 °F 31% 30.08 in 10.0 mi North 4.6 mph - N/A   Scattered Clouds
11:54 AM 57.9 °F - 28.9 °F 33% 30.06 in 10.0 mi Variable 5.8 mph - N/A   Mostly Cloudy
12:54 PM 61.0 °F - 34.0 °F 36% 30.05 in 10.0 mi WNW 6.9 mph 16.1 mph N/A   Clear
1:54 PM 62.1 °F - 34.0 °F 35% 30.02 in 10.0 mi North 12.7 mph - N/A   Mostly Cloudy
2:54 PM 61.0 °F - 36.0 °F 39% 30.01 in 10.0 mi NNW 11.5 mph 18.4 mph N/A   Mostly Cloudy
3:54 PM 63.0 °F - 36.0 °F 37% 29.98 in 10.0 mi North 12.7 mph - N/A   Scattered Clouds
4:54 PM 63.0 °F - 36.0 °F 37% 29.96 in 10.0 mi North 15.0 mph - N/A   Mostly Cloudy
5:54 PM 60.1 °F - 36.0 °F 41% 29.98 in 10.0 mi NNW 10.4 mph - N/A   Clear
6:54 PM 55.9 °F - 35.1 °F 45% 30.00 in 10.0 mi Calm Calm - N/A   Clear
7:54 PM 53.1 °F - 35.1 °F 50% 30.02 in 10.0 mi North 3.5 mph - N/A   Clear
8:54 PM 48.0 °F - 35.1 °F 61% 30.02 in 10.0 mi NNW 5.8 mph - N/A   Clear
9:54 PM 42.1 °F 40.2 °F 35.1 °F 76% 30.03 in 10.0 mi SSE 3.5 mph - N/A   Clear
10:54 PM 41.0 °F - 34.0 °F 76% 30.02 in 10.0 mi Calm Calm - N/A   Clear
11:54 PM 39.0 °F - 33.1 °F 79% 30.02 in 10.0 mi Calm Calm - N/A   Clear